Simultaneous Nadir Overpasses (SNOs) Predictions

Prediction of SNOs between GOES-15 and TERRA Satellite Orbit:

Table of predicted SNOs for the next 14.0 days since TLE Epoch: 6/10/2013
Index Date Time (GOES-15) GOES-15 Lat,Lon TERRA Lat,Lon Distance(km) Time Diff (sec)
1 06/11/2013 19:13:02 -0.08,-134.85 -0.84,-131.18 416.47 80
2 06/12/2013 07:37:05 0.06,-134.80 -0.28,-136.37 178.98 80
3 06/14/2013 07:22:14 0.07,-134.72 0.36,-133.42 148.27 80
4 06/14/2013 19:46:09 -0.05,-134.72 0.76,-138.57 437.01 80
5 06/16/2013 07:10:03 0.08,-134.63 0.96,-130.45 475.13 80
6 06/16/2013 19:33:57 -0.06,-134.64 0.17,-135.60 110.20 80
7 06/18/2013 19:19:05 -0.06,-134.55 -0.44,-132.64 216.01 80
8 06/19/2013 07:43:09 0.04,-134.50 -0.67,-137.83 379.22 80
9 06/21/2013 07:30:57 0.04,-134.39 -0.05,-134.87 54.18 80
10 06/23/2013 07:16:04 0.05,-134.28 0.53,-131.90 270.04 80
11 06/23/2013 19:39:59 -0.03,-134.27 0.59,-137.05 316.63 80




NCC Satellite Simultaneous Nadir Overpasses (SNOs) Prediction Service
